Wind_Speed
31 30 30 30 30 29 29 30 30 30 29 28 27 28 28 28 28 30 33 36 37 37 37 37 37 37 37 37 38 39 40 39 38 36 35 35 35 33 31 30 29 29
30 30 30 31 32 32 31 31 31 31 32 30 29 29 28 27 27 28 31 34 35 37 36 36 36 36 36 37 37 39 40 39 38 36 35 35 34 33 32 31 31 30
30 29 29 30 31 33 33 33 32 33 33 33 31 30 28 27 26 27 29 32 34 35 35 35 36 35 36 36 37 39 41 40 39 37 36 35 34 33 33 31 30 30
31 30 30 29 30 32 33 34 33 33 33 34 33 32 29 27 25 26 27 30 33 34 34 35 35 35 36 36 37 39 40 40 39 38 36 34 34 33 32 31 30 29
32 31 30 30 30 31 32 33 34 33 33 33 34 33 30 27 25 25 26 28 31 33 34 34 35 35 37 37 38 39 39 38 37 37 35 32 32 34 33 32 31 29
33 32 32 31 30 31 31 32 33 32 32 33 33 32 30 28 26 25 26 28 31 33 33 34 35 35 36 36 38 39 40 39 38 37 34 29 30 33 33 32 31 30
33 33 32 31 31 31 31 32 32 32 32 32 32 32 30 29 27 25 26 28 30 32 33 34 35 35 35 36 38 38 39 40 38 36 33 29 28 31 32 31 31 31
34 32 31 31 32 32 32 32 32 32 32 32 32 33 31 29 28 27 26 28 30 32 33 34 35 35 36 37 38 39 39 39 37 34 32 30 28 30 31 31 30 30
34 33 31 30 30 31 32 32 32 33 32 31 32 33 31 30 29 28 27 28 30 31 33 34 35 35 36 37 38 39 40 39 37 34 32 31 31 31 31 31 29 29
34 33 32 31 30 30 31 32 33 33 32 32 32 32 31 30 29 28 28 28 30 31 32 34 35 35 36 37 37 37 39 40 38 34 32 32 33 33 32 31 29 29
34 33 32 32 32 31 32 33 33 32 32 32 32 32 31 30 28 28 28 29 31 32 33 34 35 36 36 36 36 36 37 38 37 35 34 33 34 34 32 31 30 30
34 34 33 33 33 33 33 33 33 32 32 32 32 31 31 30 29 28 29 31 32 33 33 33 34 36 37 35 36 36 36 36 34 34 33 33 33 33 33 31 31 31
33 33 34 34 33 33 33 33 33 32 31 32 32 31 30 30 30 29 30 31 33 33 33 32 33 35 36 34 34 36 35 34 33 32 31 32 32 33 33 32 31 31
31 32 33 33 33 33 32 32 32 32 31 31 31 30 30 31 31 31 30 31 32 32 32 31 32 34 34 33 33 34 34 33 32 31 30 30 31 32 32 32 31 31
30 30 31 31 32 31 32 32 31 31 31 30 29 29 30 31 31 30 29 29 30 30 30 29 30 33 33 33 34 33 33 32 31 31 30 29 30 30 30 30 30 30
29 29 30 30 30 30 31 31 30 30 30 29 29 29 30 31 30 29 28 29 29 28 28 28 29 31 33 35 35 35 34 32 30 31 30 29 29 28 28 29 30 30
29 29 29 29 29 29 30 30 29 29 29 28 29 29 30 30 28 27 27 28 28 27 27 27 28 29 32 34 34 32 33 32 30 30 31 29 28 27 28 29 29 28
29 29 29 28 27 28 29 29 28 28 27 27 27 28 29 28 26 26 27 27 26 26 26 27 28 29 30 31 30 28 30 32 31 30 30 29 28 28 28 28 28 27
29 29 28 28 27 28 29 28 26 26 26 25 26 27 27 26 26 26 26 25 25 25 26 26 28 29 28 28 28 28 28 30 30 30 30 29 28 28 27 27 27 26
28 27 27 28 28 28 28 26 24 25 25 25 25 26 24 24 25 25 24 24 25 25 25 25 27 28 26 26 28 28 28 29 30 30 29 28 28 29 27 26 26 26
26 26 27 27 27 27 27 25 24 25 25 25 25 24 23 22 23 23 23 23 24 25 24 24 26 26 25 26 27 26 27 28 29 29 27 26 26 27 27 26 26 26
25 25 26 27 27 26 25 24 25 24 24 25 25 22 21 22 22 21 21 22 23 24 23 23 24 24 24 25 25 24 25 26 26 27 27 25 25 25 25 25 26 27
25 24 26 27 26 25 24 25 25 24 23 23 21 20 20 22 22 21 20 20 21 22 23 23 23 23 22 23 23 23 24 24 23 26 26 25 25 26 25 25 27 28
25 24 25 26 25 24 25 26 26 24 23 22 20 20 21 22 22 20 19 19 19 21 23 23 23 22 21 22 21 22 24 23 21 25 27 24 23 25 25 25 27 27
25 25 24 25 25 25 26 28 27 25 24 23 22 21 21 22 21 19 17 18 19 21 22 22 21 21 20 21 21 21 24 22 20 24 26 24 22 23 22 24 25 25
25 25 25 24 25 27 29 30 28 25 25 25 25 22 20 19 19 17 16 17 18 19 20 19 20 20 20 21 20 20 22 22 21 22 24 23 23 22 22 22 23 23
Wind_Direction
322 323 324 324 323 323 324 323 321 317 312 304 293 284 279 275 270 262 252 246 240 235 233 231 229 227 224 223 224 223 222 219 219 220 220 220 221 222 221 222 222 220
316 317 320 322 322 321 321 321 320 318 313 309 301 291 284 278 271 263 255 247 241 236 233 231 228 226 224 223 223 221 218 217 217 218 218 218 220 221 220 221 221 220
311 311 313 316 318 318 318 319 318 318 316 312 307 298 289 281 272 264 256 249 243 238 233 230 228 226 224 223 222 220 217 215 215 215 216 218 219 220 220 219 220 219
308 307 307 309 312 314 315 315 315 317 317 313 310 303 294 285 275 265 256 250 244 239 235 230 227 225 224 224 221 218 216 215 216 214 213 216 218 218 219 219 219 219
308 307 306 306 308 309 311 311 311 313 313 312 311 306 297 287 277 266 256 249 244 240 236 231 228 226 225 224 220 216 213 212 213 213 212 213 216 217 219 219 217 218
306 307 307 306 305 306 305 305 307 307 308 309 309 306 300 289 278 267 257 249 243 238 235 231 227 225 224 222 218 214 212 210 210 211 211 211 213 215 217 217 216 217
305 306 307 306 305 304 303 303 303 303 305 307 305 304 302 291 279 269 258 249 242 237 234 231 227 224 222 217 213 212 211 211 210 209 210 210 211 212 214 215 216 217
304 304 305 305 304 303 302 302 302 303 304 304 302 303 302 293 280 270 260 250 242 237 233 231 227 224 219 214 211 211 209 209 209 208 209 210 209 210 211 213 214 216
303 303 304 303 302 301 301 302 302 303 302 300 299 300 300 294 283 271 260 250 243 237 232 231 227 222 218 214 212 211 208 209 210 209 209 209 208 208 209 211 212 214
301 302 304 302 301 300 300 300 301 302 301 299 298 297 296 294 286 272 260 250 243 237 233 231 227 223 218 215 214 211 210 211 211 210 211 210 208 207 207 209 210 213
301 303 304 303 301 300 300 301 301 300 300 298 296 296 294 291 285 273 258 248 242 237 234 232 228 223 219 216 214 212 212 212 211 211 212 211 210 208 207 209 210 214
302 303 304 302 300 300 300 300 300 299 299 298 296 294 292 288 282 272 259 248 242 239 236 232 227 223 220 218 215 214 213 212 211 211 212 211 209 209 209 210 212 216
300 300 301 299 297 298 299 299 300 299 298 298 297 294 290 285 280 272 261 250 243 239 236 231 225 222 220 218 216 215 214 212 211 211 211 210 210 210 210 210 212 216
295 296 296 295 295 296 298 298 299 299 298 299 297 293 289 285 279 273 264 252 244 239 235 230 224 220 218 217 216 215 214 212 211 210 209 209 210 211 211 210 212 215
295 295 294 294 294 296 297 298 299 299 300 300 298 295 290 285 280 274 264 252 244 240 235 229 223 218 216 215 214 214 213 212 211 210 209 208 208 210 210 210 211 215
295 296 294 294 294 296 297 298 299 300 300 300 300 297 291 285 280 272 260 249 242 238 233 227 222 219 217 216 214 213 212 211 211 210 209 207 207 208 208 209 211 214
297 297 295 294 295 297 298 298 299 299 298 298 299 296 291 285 279 269 258 246 238 234 231 227 223 220 218 217 214 212 212 211 210 210 209 208 208 206 206 208 208 211
298 298 297 296 297 299 299 299 298 297 296 296 296 294 290 284 278 269 257 244 235 231 228 226 225 222 219 217 213 210 211 211 210 210 209 208 209 207 207 208 206 208
298 298 298 298 299 300 299 297 297 296 296 295 295 293 288 283 279 271 257 243 232 227 225 224 225 223 219 216 214 212 211 210 210 210 208 208 209 208 207 206 204 205
297 297 297 297 299 300 297 295 295 296 295 295 293 289 284 280 278 270 256 243 232 227 224 222 223 223 219 216 216 216 213 210 208 208 208 209 210 209 206 203 201 203
296 296 296 296 297 298 296 296 296 295 295 296 293 286 283 283 279 268 256 244 233 227 224 221 222 221 217 216 217 216 217 213 206 203 205 208 210 209 206 203 202 204
295 294 294 295 295 295 295 296 295 293 293 294 291 286 287 290 284 271 257 245 233 226 222 220 221 219 214 216 217 216 219 218 205 198 202 206 208 209 206 204 204 207
295 293 293 294 294 293 294 295 293 291 292 293 288 283 287 291 287 277 263 248 233 225 220 217 219 217 212 214 216 215 219 219 202 193 198 202 205 208 206 205 207 210
295 292 292 292 292 292 293 293 292 290 291 293 288 281 284 288 287 280 266 249 234 225 221 217 218 218 211 211 215 215 217 216 198 189 195 199 200 204 205 205 209 213
296 293 293 292 291 292 292 291 291 290 290 292 290 282 279 282 283 277 264 249 236 228 223 217 217 218 213 210 212 214 215 214 198 186 190 194 194 195 198 202 206 209
296 293 292 292 291 292 293 292 291 291 290 291 292 287 279 276 276 271 260 248 237 228 222 216 214 216 215 210 210 213 214 211 200 187 184 187 188 187 189 194 199 202
Height
724 720 716 712 709 707 704 702 700 697 695 693 692 691 690 689 689 690 690 691 692 691 691 693 694 695 697 699 700 702 703 705 707 710 712 714 716 718 720 722 724 726
720 717 714 710 706 703 701 699 697 694 692 690 689 688 686 686 685 685 686 687 688 687 687 688 689 691 693 694 696 698 700 701 704 707 709 710 712 714 716 718 720 723
716 713 711 707 704 700 697 695 693 691 689 687 686 684 683 682 681 681 681 683 684 683 683 683 684 687 689 691 692 694 695 697 699 702 705 706 709 711 713 715 717 719
712 710 707 704 701 698 694 691 688 687 685 683 683 682 680 678 677 676 677 678 680 680 680 680 680 683 685 687 689 690 692 694 696 699 701 703 705 707 710 712 715 717
709 706 703 700 698 695 692 689 686 683 682 680 679 678 677 675 673 672 672 673 675 676 677 677 677 678 680 682 685 687 689 691 693 695 698 700 701 703 706 709 711 713
705 702 699 697 695 693 690 687 684 681 679 677 676 675 674 672 670 669 668 668 670 671 673 674 674 674 676 678 681 683 685 687 689 692 694 696 698 699 702 705 707 710
701 698 696 693 692 690 687 684 681 678 676 674 672 671 670 668 667 666 665 665 665 666 668 670 670 671 672 674 677 678 680 682 685 687 690 692 694 696 699 702 704 706
697 694 693 691 688 686 684 681 678 675 672 670 668 666 665 664 663 662 662 661 661 661 663 665 667 668 669 670 672 674 676 678 681 683 685 688 690 692 695 698 701 703
693 691 689 687 685 682 680 677 674 672 669 666 664 662 661 660 659 658 658 658 657 657 658 660 663 665 666 666 668 670 672 674 677 679 680 682 685 687 690 694 697 700
689 687 684 682 680 678 676 673 671 668 665 662 659 657 656 655 655 654 654 654 654 653 653 655 658 660 662 663 664 666 667 669 672 674 676 677 680 682 686 689 693 696
684 682 680 677 675 673 671 669 667 664 661 658 655 653 651 651 651 650 650 650 649 649 649 649 652 655 657 659 661 663 664 665 667 669 671 673 675 678 681 684 688 692
679 677 675 673 671 669 667 665 662 659 656 654 651 649 647 646 646 646 646 645 644 644 645 644 646 650 653 655 657 659 661 662 664 665 667 669 672 674 676 679 683 687
677 674 673 670 668 666 663 661 658 655 653 650 647 646 644 642 642 641 640 640 639 640 640 640 642 644 648 651 654 656 657 658 660 662 664 666 668 670 672 674 678 682
674 672 670 667 664 662 659 656 654 651 648 646 644 642 640 638 637 636 636 636 635 636 636 637 637 639 643 647 650 653 654 655 657 659 661 663 665 667 669 670 673 677
671 668 666 663 661 658 655 652 649 647 644 642 640 638 636 634 633 632 632 632 632 632 633 634 634 635 638 642 646 649 651 652 654 656 658 660 662 665 666 667 669 672
666 664 661 659 656 653 651 648 645 643 641 638 636 634 632 631 629 628 628 627 627 628 630 631 631 632 634 637 641 644 646 648 651 652 655 657 659 662 663 664 666 668
661 659 656 654 652 649 647 644 642 640 637 635 633 630 629 627 626 625 623 623 623 625 626 628 629 630 631 634 637 640 642 644 647 649 652 654 657 659 660 661 663 664
657 654 652 649 647 645 642 640 638 636 634 632 629 627 625 624 622 621 619 619 620 621 622 624 626 627 629 631 634 637 638 640 643 646 649 651 654 655 657 658 660 661
653 650 647 645 643 641 638 636 634 632 630 628 626 624 622 620 619 617 616 616 617 617 618 620 622 625 627 629 631 634 635 637 639 642 645 648 650 652 654 655 656 658
649 646 643 641 639 637 634 633 631 629 627 624 622 620 618 616 615 614 612 612 613 614 615 616 618 621 624 627 628 630 632 634 635 638 642 645 647 650 651 652 653 655
645 643 640 637 635 633 630 629 627 625 623 621 618 616 614 613 612 610 609 609 610 611 612 613 614 617 621 623 625 627 629 631 632 635 638 642 645 647 648 648 649 652
641 639 636 633 631 629 627 625 623 621 619 617 615 613 611 610 608 607 606 606 606 608 609 610 612 614 617 619 621 623 626 627 628 631 635 639 643 645 646 646 647 650
637 635 632 630 628 625 623 621 619 617 616 614 612 610 608 607 605 603 603 603 604 605 606 607 609 611 613 615 617 620 622 624 625 628 632 636 639 642 644 644 646 649
634 632 629 627 624 622 620 617 615 613 612 610 608 606 605 603 601 601 600 600 601 602 603 604 605 607 609 612 614 616 619 622 623 625 629 633 636 639 641 643 645 648
629 628 626 624 621 618 616 614 612 610 608 606 604 602 601 599 598 598 597 597 598 598 600 601 602 604 606 608 611 613 616 619 620 622 626 630 634 637 639 641 644 647
626 624 622 620 617 615 612 610 608 606 604 602 600 598 597 596 595 594 594 594 594 595 596 598 599 601 603 605 608 611 613 616 618 620 623 627 631 634 637 639 642 645